Location: Ferintosh
(52.7647°N, 112.9692°W)
Time: 00:47:51
(UTC+00:00)

Vanguard 1 Rocket - Pass Details

Date: 23 May 2024
Orbit: 649 x 4221 km, 34.3° (Epoch: 13 June)

Event Time Altitude Azimuth Distance (km) Brightness Sun altitude
Rises 19:54:16 0° 259° (WSW) 7,043 12.1 57.6°
Reaches altitude 10° 20:00:38 10° 249° (WSW) 5,367 11.7 57.4°
Maximum altitude 20:11:09 26° 202° (SSW) 3,023 11.2 57.0°
Drops below altitude 10° 20:17:44 10° 149° (SSE) 3,244 10.7 56.7°
Sets 20:20:29 0° 136° (SE) 3,865 10.8 56.5°
